Location: Kailua
(21.4020°N, 157.7390°W)
Time: 22:22:49
(UTC-10:00)

Cosmos 2221 Rocket - Visible Passes

Search period start: 25 January 2015 00:00
Search period end: 04 February 2015 00:00
Orbit: 621 x 650 km, 82.5° (Epoch: 25 January)

Date Brightness Start Highest point End Pass type
(mag) Time Alt. Az. Time Alt. Az. Time Alt. Az.
25 Jan 5.6 05:46:47 10° SSE 05:50:45 31° E 05:54:48 10° NNE visible
26 Jan 3.7 06:08:38 10° S 06:13:11 80° E 06:17:43 10° N visible
27 Jan 4.1 06:31:24 10° SSW 06:35:41 39° W 06:39:55 10° NNW visible
28 Jan 5.9 05:16:29 10° SE 05:20:09 25° E 05:23:53 10° NE visible
29 Jan 4.1 05:38:04 10° S 05:42:33 63° E 05:47:02 10° NNE visible
30 Jan 3.8 06:00:36 10° SSW 06:05:01 50° W 06:09:25 10° N visible
31 Jan 6.2 04:46:18 10° SE 04:49:30 20° E 04:52:52 10° NE visible
31 Jan 4.8 06:24:10 10° SW 06:27:38 21° W 06:30:57 10° NNW visible
01 Feb 4.5 05:07:33 10° SSE 05:11:56 49° E 05:16:18 10° NNE visible
02 Feb 3.5 05:29:52 10° SSW 05:34:22 65° W 05:38:50 10° N visible
03 Feb7.104:24:27NNE04:24:27NNE04:14:46SEvisible
03 Feb6.406:02:06NNW06:02:06NNW05:52:01SWvisible
